Big Bear Station Historical Data
Daily Summary for September 17, 2017 Units:  English    Metric   Both
Next Day »
Daily Weekly Monthly Yearly Custom
  High: Low: Average:
Temperature: 71.1 °F 46.2 °F 61.3 °F
Dew Point: 51.4 °F 36.3 °F 42.7 °F
Humidity: 71% 34% 52%
Wind Speed: 5.3mph 0.0mph 1.9mph
Wind Gust: -999.0mph - -
Wind- - NW
Pressure: 30.20 in 30.16 in -
Precipitation: 0.00 in    
Historical Graphs
 
 
Tabular Data for September 17, 2017
Time Temperature Dew Point Pressure Wind Wind Speed Wind Gust Humidity Rainfall Rate (Hourly)
10:42 62.8 °F 37.5 °F 30.18 in NNW 4.2 mph -999.0 mph 39% 0 in
10:57 64.8 °F 38.6 °F 30.18 in NW 3.2 mph -999.0 mph 38% 0 in
11:13 66.2 °F 38.5 °F 30.18 in West 2.7 mph -999.0 mph 36% 0 in
11:28 66.9 °F 37.6 °F 30.18 in East 2.7 mph -999.0 mph 34% 0 in
11:43 67.8 °F 43.2 °F 30.18 in NNW 3.7 mph -999.0 mph 41% 0 in
11:59 67.3 °F 42.8 °F 30.18 in NNW 3.2 mph -999.0 mph 41% 0 in
12:14 68.4 °F 43.8 °F 30.18 in NW 4.7 mph -999.0 mph 41% 0 in
12:29 68.7 °F 44.7 °F 30.18 in North 2.2 mph -999.0 mph 42% 0 in
12:45 69.8 °F 46.3 °F 30.18 in NW 2.7 mph -999.0 mph 43% 0 in
13:00 70.2 °F 47.3 °F 30.18 in NNW 4.2 mph -999.0 mph 44% 0 in
13:15 70.0 °F 46.5 °F 30.17 in NNW 3.7 mph -999.0 mph 43% 0 in
13:30 70.2 °F 46.7 °F 30.17 in NW 4.7 mph -999.0 mph 43% 0 in
13:46 70.3 °F 46.7 °F 30.17 in NW 5.3 mph -999.0 mph 43% 0 in
14:01 70.2 °F 46.0 °F 30.17 in NNW 4.2 mph -999.0 mph 42% 0 in
14:16 71.1 °F 46.2 °F 30.17 in NNW 3.7 mph -999.0 mph 41% 0 in
14:32 69.6 °F 46.1 °F 30.17 in North 2.7 mph -999.0 mph 43% 0 in
14:47 69.1 °F 47.5 °F 30.16 in NW 4.7 mph -999.0 mph 46% 0 in
15:03 69.1 °F 46.3 °F 30.16 in North 3.2 mph -999.0 mph 44% 0 in
15:18 68.4 °F 46.2 °F 30.16 in WNW 4.2 mph -999.0 mph 45% 0 in
15:33 69.4 °F 47.1 °F 30.16 in NNW 3.7 mph -999.0 mph 45% 0 in
15:48 68.7 °F 48.2 °F 30.16 in WNW 4.2 mph -999.0 mph 48% 0 in
16:03 67.5 °F 47.7 °F 30.16 in West 1.1 mph -999.0 mph 49% 0 in
16:19 66.0 °F 48.4 °F 30.16 in NNW 2.7 mph -999.0 mph 53% 0 in
16:34 66.7 °F 49.0 °F 30.16 in WNW 2.7 mph -999.0 mph 53% 0 in
16:49 67.1 °F 50.4 °F 30.16 in NW 2.7 mph -999.0 mph 55% 0 in
17:04 69.1 °F 50.7 °F 30.16 in NW 2.7 mph -999.0 mph 52% 0 in
17:20 67.1 °F 51.4 °F 30.16 in NNW 2.7 mph -999.0 mph 57% 0 in
17:35 65.8 °F 51.1 °F 30.16 in NW 1.7 mph -999.0 mph 59% 0 in
17:50 64.2 °F 49.1 °F 30.16 in NW 2.7 mph -999.0 mph 58% 0 in
18:05 63.5 °F 48.9 °F 30.16 in Calm   -999.0 mph 59% 0 in
18:20 62.8 °F 40.6 °F 30.16 in North 2.7 mph -999.0 mph 44% 0 in
18:36 62.2 °F 40.0 °F 30.16 in NW 2.7 mph -999.0 mph 44% 0 in
18:51 60.8 °F 38.7 °F 30.16 in Calm   -999.0 mph 44% 0 in
19:06 59.5 °F 38.1 °F 30.16 in Calm   -999.0 mph 45% 0 in
19:21 57.7 °F 39.2 °F 30.17 in Calm   -999.0 mph 50% 0 in
19:37 56.7 °F 41.6 °F 30.17 in Calm   -999.0 mph 57% 0 in
19:52 55.4 °F 42.2 °F 30.17 in Calm   -999.0 mph 61% 0 in
20:07 54.1 °F 40.9 °F 30.18 in Calm   -999.0 mph 61% 0 in
20:22 53.4 °F 40.3 °F 30.18 in Calm   -999.0 mph 61% 0 in
20:38 52.7 °F 40.0 °F 30.18 in Calm   -999.0 mph 62% 0 in
20:53 52.0 °F 38.5 °F 30.19 in Calm   -999.0 mph 60% 0 in
21:08 51.3 °F 37.0 °F 30.19 in Calm   -999.0 mph 58% 0 in
21:23 50.7 °F 36.5 °F 30.19 in Calm   -999.0 mph 58% 0 in
21:38 50.4 °F 36.6 °F 30.20 in Calm   -999.0 mph 59% 0 in
21:54 50.0 °F 36.7 °F 30.20 in Calm   -999.0 mph 60% 0 in
22:09 49.3 °F 36.4 °F 30.20 in Calm   -999.0 mph 61% 0 in
22:24 48.7 °F 36.3 °F 30.20 in Calm   -999.0 mph 62% 0 in
22:39 48.4 °F 36.8 °F 30.20 in Calm   -999.0 mph 64% 0 in
22:54 48.0 °F 37.2 °F 30.20 in Calm   -999.0 mph 66% 0 in
23:10 47.5 °F 37.5 °F 30.20 in Calm   -999.0 mph 68% 0 in
23:25 47.3 °F 37.3 °F 30.20 in Calm   -999.0 mph 68% 0 in
23:40 46.6 °F 37.0 °F 30.20 in Calm   -999.0 mph 69% 0 in
23:55 46.2 °F 37.3 °F 30.20 in Calm   -999.0 mph 71% 0 in
Big Bear CA Weather